Weather History for Presque Isle, ME

Change the Weather History Date:

Sunday, February 17, 2013

  Actual Average Record
Temperature  
Mean Temperature 19 °F -  
Max Temperature 23 °F 22 °F 45 °F (1981)
Min Temperature 15 °F 2 °F -32 °F (1934)
Degree Days  
Heating Degree Days 46    
Moisture  
Dew Point 13 °F    
Average Humidity 80    
Maximum Humidity 86    
Minimum Humidity 73    
Precipitation  
Precipitation 0.00 in - - ()
Sea Level Pressure  
Sea Level Pressure 29.32 in    
Wind  
Wind Speed 16 mph (NNW)    
Max Wind Speed 31 mph    
Max Gust Speed 43 mph    
Visibility 3 miles    
Events      
Averages and records for this station are not official NWS values.
T = Trace of Precipitation, MM = Missing Value Source: NWS Daily Summary

Daily Weather History Graph

Daily Weather History Graph

Search for Another Location

Airport:

Trip Planner

Search our weather history database for the weather conditions in past years. The results will help you decide how hot, cold, wet, or windy it might be!

Date:

Astronomy

Feb. 17, 2013 Rise Set
Actual Time 6:32 AM EST 5:00 PM EST
Civil Twilight 6:01 AM EST 5:31 PM EST
Nautical Twilight 5:26 AM EST 6:06 PM EST
Astronomical Twilight 4:51 AM EST 6:41 PM EST
Moon 9:54 AM EST (2/17) 12:21 AM EST (2/17)
Length of Visible Light 11h 30m
Length of Day
10h 28m
Waxing Crescent, 49% of the Moon is Illuminated
Feb 17
Waxing Crescent
Feb 17
First Quarter
Feb 25
Full
Mar 4
Last Quarter
Mar 11
New

Hourly Weather History & Observations

Time (EST) Temp. Windchill Dew Point Humidity Pressure Visibility Wind Dir Wind Speed Gust Speed Precip Events Conditions
12:15 AM 23.0 °F 13.9 °F 17.6 °F 80% 29.74 in 5.0 mi NW 8.1 mph - N/A   Overcast
12:35 AM 21.2 °F 12.6 °F 17.6 °F 86% 29.73 in 4.0 mi NNW 6.9 mph - N/A   Overcast
12:55 AM 21.2 °F 11.7 °F 17.6 °F 86% 29.72 in 5.0 mi NW 8.1 mph - N/A   Overcast
1:15 AM 21.2 °F 13.6 °F 17.6 °F 86% 29.71 in 6.0 mi NW 5.8 mph - N/A   Mostly Cloudy
1:35 AM 21.2 °F 12.6 °F 17.6 °F 86% 29.71 in 2.5 mi NW 6.9 mph - N/A   Overcast
1:55 AM 21.2 °F 16.4 °F 17.6 °F 86% 29.70 in 3.0 mi NW 3.5 mph - N/A   Overcast
2:35 AM 19.4 °F 6.6 °F 15.8 °F 86% 29.67 in 4.0 mi NNW 12.7 mph - N/A   Overcast
2:55 AM 19.4 °F 5.5 °F 14.0 °F 80% 29.64 in 5.0 mi NNW 15.0 mph - N/A   Overcast
3:15 AM 19.4 °F 6.0 °F 14.0 °F 80% 29.63 in 7.0 mi NNW 13.8 mph - N/A   Overcast
3:35 AM 19.4 °F 5.5 °F 12.2 °F 74% 29.64 in 5.0 mi NNW 15.0 mph - N/A   Overcast
3:55 AM 17.6 °F 4.3 °F 12.2 °F 79% 29.62 in 5.0 mi NNW 12.7 mph - N/A   Overcast
4:15 AM 17.6 °F 3.7 °F 14.0 °F 86% 29.61 in 6.0 mi NNW 13.8 mph - N/A   Overcast
4:35 AM 17.6 °F 3.2 °F 12.2 °F 79% 29.60 in 3.0 mi NNW 15.0 mph - N/A   Overcast
4:55 AM 17.6 °F 3.2 °F 12.2 °F 79% 29.60 in 1.8 mi NNW 15.0 mph 19.6 mph N/A   Overcast
5:15 AM 17.6 °F 3.2 °F 12.2 °F 79% 29.58 in 2.5 mi NNW 15.0 mph - N/A   Overcast
5:55 AM 17.6 °F 3.7 °F 12.2 °F 79% 29.57 in 2.0 mi NNW 13.8 mph 21.9 mph N/A   Overcast
6:15 AM 17.6 °F 3.2 °F 12.2 °F 79% 29.56 in 2.0 mi North 15.0 mph 23.0 mph N/A   Overcast
6:35 AM 17.6 °F 3.2 °F 12.2 °F 79% 29.55 in 1.2 mi NNW 15.0 mph - N/A   Overcast
6:55 AM 15.8 °F 0.3 °F 12.2 °F 86% 29.53 in 1.2 mi NNW 16.1 mph 23.0 mph N/A   Overcast
7:15 AM 15.8 °F -0.2 °F 12.2 °F 86% 29.53 in 1.5 mi NNW 17.3 mph 25.3 mph N/A   Overcast
7:35 AM 15.8 °F -0.2 °F 10.4 °F 79% 29.51 in 2.0 mi NNW 17.3 mph 20.7 mph N/A   Overcast
7:55 AM 15.8 °F 0.9 °F 10.4 °F 79% 29.50 in 1.2 mi NNW 15.0 mph 23.0 mph N/A   Overcast
8:15 AM 15.8 °F -1.1 °F 10.4 °F 79% 29.47 in 3.0 mi NNW 19.6 mph 24.2 mph N/A   Mostly Cloudy
8:35 AM 15.8 °F -0.2 °F 10.4 °F 79% 29.45 in 1.8 mi NNW 17.3 mph - N/A   Overcast
8:55 AM 15.8 °F -1.1 °F 10.4 °F 79% 29.44 in 4.0 mi NNW 19.6 mph - N/A   Overcast
9:15 AM 15.8 °F 0.9 °F 10.4 °F 79% 29.42 in 5.0 mi NNW 15.0 mph 24.2 mph N/A   Overcast
9:35 AM 15.8 °F 0.3 °F 10.4 °F 79% 29.41 in 2.5 mi NNW 16.1 mph 23.0 mph N/A   Overcast
9:55 AM 15.8 °F -0.6 °F 10.4 °F 79% 29.38 in 5.0 mi NNW 18.4 mph 23.0 mph N/A   Overcast
10:15 AM 15.8 °F -1.1 °F 10.4 °F 79% 29.36 in 10.0 mi NNW 19.6 mph - N/A   Overcast
10:35 AM 17.6 °F 1.7 °F 10.4 °F 73% 29.34 in 9.0 mi NNW 18.4 mph - N/A   Overcast
10:55 AM 17.6 °F 1.7 °F 10.4 °F 73% 29.31 in 7.0 mi NNW 18.4 mph 26.5 mph N/A   Overcast
11:15 AM 17.6 °F -0.3 °F 10.4 °F 73% 29.29 in 3.0 mi NNW 24.2 mph 27.6 mph N/A   Overcast
11:55 AM - - - N/A% 29.23 in 3.0 mi NNW 25.3 mph 31.1 mph N/A   Overcast
12:15 PM - - - N/A% 29.21 in 3.0 mi NNW 24.2 mph 31.1 mph N/A   Overcast
12:35 PM 17.6 °F -0.6 °F 12.2 °F 79% 29.18 in 2.5 mi NNW 25.3 mph 35.7 mph N/A   Overcast
12:55 PM - - - N/A% 29.15 in 3.0 mi NNW 27.6 mph 35.7 mph N/A   Overcast
1:15 PM - - - N/A% 29.13 in 1.5 mi NNW 31.1 mph 39.1 mph N/A   Overcast
1:35 PM 17.6 °F -0.6 °F 12.2 °F 79% 29.11 in 1.2 mi NNW 25.3 mph 39.1 mph N/A   Overcast
1:55 PM - - - N/A% 29.09 in 1.5 mi NNW 29.9 mph 39.1 mph N/A   Overcast
2:15 PM 19.4 °F 1.4 °F 12.2 °F 74% 29.07 in 1.8 mi NNW 26.5 mph 36.8 mph N/A   Overcast
2:35 PM - - - N/A% 29.06 in 3.0 mi NNW 25.3 mph 34.5 mph N/A   Overcast
2:55 PM 17.6 °F -1.3 °F 12.2 °F 79% 29.04 in 3.0 mi NW 27.6 mph 34.5 mph N/A   Overcast
3:15 PM - - - N/A% 29.03 in 1.0 mi NW 27.6 mph 35.7 mph N/A   Overcast
3:35 PM 17.6 °F -1.6 °F 12.2 °F 79% 29.02 in 0.8 mi NW 28.8 mph 38.0 mph N/A   Overcast
3:55 PM 17.6 °F -1.6 °F 12.2 °F 79% 29.01 in 0.2 mi NW 28.8 mph 40.3 mph N/A   Overcast
4:15 PM 17.6 °F -1.9 °F 12.2 °F 79% 29.00 in 0.5 mi NW 29.9 mph 39.1 mph N/A   Overcast
4:35 PM 19.4 °F 1.1 °F 12.2 °F 74% 28.99 in 1.0 mi NW 27.6 mph 38.0 mph N/A   Overcast
4:55 PM 19.4 °F 1.4 °F 14.0 °F 80% 28.98 in 0.8 mi NW 26.5 mph 38.0 mph N/A   Overcast
5:15 PM 19.4 °F 1.8 °F 12.2 °F 74% 28.98 in 0.8 mi NW 25.3 mph 40.3 mph N/A   Overcast
5:35 PM 19.4 °F 2.1 °F 14.0 °F 80% 28.97 in 1.2 mi NW 24.2 mph 41.4 mph N/A   Overcast
5:55 PM 19.4 °F 1.4 °F 14.0 °F 80% 28.98 in 1.2 mi NW 26.5 mph 41.4 mph N/A   Overcast
6:15 PM - - - N/A% 28.97 in 1.2 mi NW 27.6 mph 38.0 mph N/A   Overcast
6:35 PM 19.4 °F 1.1 °F 14.0 °F 80% 28.96 in 1.5 mi NW 27.6 mph 41.4 mph N/A   Overcast
6:55 PM 19.4 °F 2.5 °F 14.0 °F 80% 28.96 in 1.2 mi NW 23.0 mph 40.3 mph N/A   Overcast
7:15 PM - - - N/A% 28.95 in 1.5 mi NW 29.9 mph 40.3 mph N/A   Overcast
7:35 PM - - - N/A% 28.95 in 1.2 mi NW 31.1 mph 39.1 mph N/A   Overcast
7:55 PM - - - N/A% 28.95 in 1.8 mi NW 31.1 mph 42.6 mph N/A   Overcast
8:15 PM - - - N/A% 28.95 in 1.5 mi NW 31.1 mph 40.3 mph N/A   Overcast